Time,TemperatureF,DewpointF,PressureIn,WindDirection,WindDirectionDegrees,WindSpeedMPH,WindSpeedGustMPH,Humidity,HourlyPrecipIn,Conditions,Clouds,dailyrainin,SoftwareType,DateUTC
2013-07-21 00:11:00,69.4,52.6,29.46,East,90,5.4,6.9,46,0.00,,,0.00,fowsr,2013-07-20 22:11:00,
2013-07-21 00:42:00,68.7,51.5,29.46,NE,45,3.1,5.4,45,0.00,,,0.00,fowsr,2013-07-20 22:42:00,
2013-07-21 01:11:00,68.0,50.4,29.47,NNE,22,1.6,2.2,44,0.00,,,0.00,fowsr,2013-07-20 23:11:00,
2013-07-21 01:42:00,68.4,50.2,29.47,NE,45,3.1,6.9,43,0.00,,,0.00,fowsr,2013-07-20 23:42:00,
2013-07-21 02:11:00,67.6,51.0,29.47,North,0,1.6,3.1,46,0.00,,,0.00,fowsr,2013-07-21 00:11:00,
2013-07-21 02:42:00,67.5,50.4,29.47,ESE,112,1.6,3.8,45,0.00,,,0.00,fowsr,2013-07-21 00:42:00,
2013-07-21 03:11:00,67.1,50.5,29.47,SE,135,2.2,5.4,46,0.00,,,0.00,fowsr,2013-07-21 01:11:00,
2013-07-21 04:11:00,66.4,50.7,29.47,NE,45,2.2,3.1,48,0.00,,,0.00,fowsr,2013-07-21 02:11:00,
2013-07-21 04:42:00,65.7,51.3,29.48,North,0,0.7,2.2,51,0.00,,,0.00,fowsr,2013-07-21 02:42:00,
2013-07-21 05:11:00,64.9,51.0,29.48,North,0,0.0,1.6,52,0.00,,,0.00,fowsr,2013-07-21 03:11:00,
2013-07-21 05:42:00,64.6,51.5,29.49,West,270,0.7,1.6,54,0.00,,,0.00,fowsr,2013-07-21 03:42:00,
2013-07-21 06:11:00,66.4,52.3,29.50,NW,315,0.7,1.6,52,0.00,,,0.00,fowsr,2013-07-21 04:11:00,
2013-07-21 06:42:00,67.5,53.3,29.49,NW,315,0.7,2.2,52,0.00,,,0.00,fowsr,2013-07-21 04:42:00,
2013-07-21 07:11:00,69.8,53.3,29.49,NW,315,1.6,2.2,47,0.00,,,0.00,fowsr,2013-07-21 05:11:00,
2013-07-21 07:42:00,72.7,52.6,29.50,SW,225,2.2,3.8,40,0.00,,,0.00,fowsr,2013-07-21 05:42:00,
2013-07-21 08:11:00,71.1,51.7,29.50,NW,315,1.6,3.1,41,0.00,,,0.00,fowsr,2013-07-21 06:11:00,
2013-07-21 08:42:00,72.7,52.1,29.51,WNW,292,3.1,4.5,39,0.00,,,0.00,fowsr,2013-07-21 06:42:00,
2013-07-21 09:11:00,76.8,53.4,29.51,NE,45,2.2,3.1,35,0.00,,,0.00,fowsr,2013-07-21 07:11:00,
2013-07-21 09:42:00,77.9,53.1,29.51,East,90,1.6,3.1,33,0.00,,,0.00,fowsr,2013-07-21 07:42:00,
2013-07-21 10:11:00,75.6,52.9,29.51,NW,315,3.1,6.0,36,0.00,,,0.00,fowsr,2013-07-21 08:11:00,
2013-07-21 10:42:00,78.3,54.0,29.50,NNW,337,2.2,4.5,34,0.00,,,0.00,fowsr,2013-07-21 08:42:00,
2013-07-21 11:11:00,79.2,52.9,29.50,NW,315,7.6,9.8,31,0.00,,,0.00,fowsr,2013-07-21 09:11:00,
2013-07-21 11:42:00,79.2,51.5,29.49,NNE,22,1.6,3.1,29,0.00,,,0.00,fowsr,2013-07-21 09:42:00,
2013-07-21 12:11:00,81.7,50.6,29.50,West,270,5.4,7.6,25,0.00,,,0.00,fowsr,2013-07-21 10:11:00,
2013-07-21 12:42:00,81.5,50.4,29.49,North,0,3.8,5.4,25,0.00,,,0.00,fowsr,2013-07-21 10:42:00,
2013-07-21 13:11:00,82.0,50.9,29.49,NE,45,3.8,6.0,25,0.00,,,0.00,fowsr,2013-07-21 11:11:00,
2013-07-21 13:42:00,83.8,53.2,29.47,West,270,3.8,5.4,26,0.00,,,0.00,fowsr,2013-07-21 11:42:00,
2013-07-21 14:11:00,82.8,53.0,29.47,NW,315,6.9,10.7,27,0.00,,,0.00,fowsr,2013-07-21 12:11:00,
2013-07-21 14:42:00,87.4,53.5,29.46,SW,225,0.7,1.6,23,0.00,,,0.00,fowsr,2013-07-21 12:42:00,
2013-07-21 15:11:00,86.7,52.0,29.45,ESE,112,0.0,1.6,22,0.00,,,0.00,fowsr,2013-07-21 13:11:00,
2013-07-21 15:42:00,87.6,52.8,29.46,South,180,3.8,5.4,22,0.00,,,0.00,fowsr,2013-07-21 13:42:00,
2013-07-21 16:11:00,86.9,53.1,29.46,South,180,3.1,3.8,23,0.00,,,0.00,fowsr,2013-07-21 14:11:00,
2013-07-21 16:42:00,89.6,51.3,29.45,South,180,2.2,3.8,19,0.00,,,0.00,fowsr,2013-07-21 14:42:00,
2013-07-21 17:11:00,89.6,50.2,29.45,East,90,0.7,1.6,18,0.00,,,0.00,fowsr,2013-07-21 15:11:00,
2013-07-21 17:42:00,89.1,50.9,29.45,NNW,337,3.1,6.9,19,0.00,,,0.00,fowsr,2013-07-21 15:42:00,
2013-07-21 18:11:00,87.6,51.8,29.44,NE,45,1.6,3.8,21,0.00,,,0.00,fowsr,2013-07-21 16:11:00,
2013-07-21 18:42:00,88.5,51.5,29.44,NE,45,1.6,3.1,20,0.00,,,0.00,fowsr,2013-07-21 16:42:00,
2013-07-21 19:11:00,84.7,53.1,29.45,NW,315,0.7,2.2,25,0.00,,,0.00,fowsr,2013-07-21 17:11:00,
2013-07-21 19:42:00,84.0,55.6,29.45,NE,45,0.0,0.7,29,0.00,,,0.00,fowsr,2013-07-21 17:42:00,
2013-07-21 20:11:00,78.8,53.9,29.46,South,180,0.0,0.0,33,0.00,,,0.00,fowsr,2013-07-21 18:11:00,
2013-07-21 20:42:00,76.8,55.7,29.46,SE,135,0.0,0.0,39,0.00,,,0.00,fowsr,2013-07-21 18:42:00,
2013-07-21 21:11:00,75.6,55.6,29.47,South,180,0.7,1.6,41,0.00,,,0.00,fowsr,2013-07-21 19:11:00,
2013-07-21 21:42:00,73.6,54.9,29.47,NE,45,0.7,1.6,43,0.00,,,0.00,fowsr,2013-07-21 19:42:00,
2013-07-21 22:11:00,73.0,55.3,29.47,NE,45,0.7,1.6,45,0.00,,,0.00,fowsr,2013-07-21 20:11:00,
2013-07-21 22:42:00,72.7,55.5,29.49,East,90,3.1,6.0,46,0.00,,,0.00,fowsr,2013-07-21 20:42:00,
2013-07-21 23:11:00,70.7,55.0,29.50,NE,45,2.2,3.1,49,0.00,,,0.00,fowsr,2013-07-21 21:11:00,
2013-07-21 23:42:00,69.8,54.6,29.50,East,90,1.6,2.2,50,0.00,,,0.00,fowsr,2013-07-21 21:42:00,